Location: Unspecified
(0.0000°N, 0.0000°E)
Time: 05:00:41
(UTC+00:00)

Explorer 7 - Pass Details

Date: 06 October 2020
Orbit: 484 x 678 km, 50.3° (Epoch: 28 October)

Event Time Altitude Azimuth Distance (km) Brightness Sun altitude
Rises 08:15:55 0° 288° (WNW) 2,992 10.1 36.8°
Reaches altitude 10° 08:19:30 10° 262° (W) 2,055 9.4 37.7°
Maximum altitude 08:21:44 13° 233° (SW) 1,825 9.2 38.2°
Drops below altitude 10° 08:23:57 10° 204° (SSW) 2,010 9.6 38.8°
Sets 08:27:24 0° 177° (S) 2,873 10.6 39.6°
